{"data":{"norad_id":58899,"intl_designator":"2024-022A","name":"LEMUR-2-NIMBUS2000","alt_names":[],"object_type":"PAYLOAD","status":"ACTIVE","operator":null,"country":"US","launch_date":"2024-01-31","launch_site_code":"RLLB","launch_vehicle":null,"mission":null,"orbit_class":"UNKNOWN","rcs_meters":null,"size_class":null,"mass_kg":null,"dimensions":null,"purposes":["earth_obs"],"wikipedia_slug":null,"has_3d_model":false,"image_url":null,"decayed_at":null,"tle_current":{"epoch":"2026-09-19T19:59:52.450944Z","epoch_age_seconds":72100,"freshness":"FRESH","line1":"1 58899U 24022A   26262.83324596  .00017465  00000+0  38896-3 0  9996","line2":"2 58899  97.3994 114.2288 0009179 128.4328 231.7745 15.43635873146850","mean_motion":15.43635873,"eccentricity":0.0009179,"inclination_deg":97.3994,"raan_deg":114.2288,"arg_perigee_deg":128.4328,"mean_anomaly_deg":231.7745,"bstar":0.00038896,"rev_number":14685,"period_min":93.286248731795,"perigee_km":429.1351050715,"apogee_km":441.64337654437,"semimajor_km":6813.5262408079,"source":"CELESTRAK","updated_at":"2026-09-20T09:00:34.870214Z"}}}